W3AJR Weather Reports


time (UTC)temp
F
wind
direction
speed
knots
gust
knots
rain 1hr
in
rain 24hr
in
rain mn
in
humidity
%
barometer
mb
20260507174615 56 231 0.9 0.9 0.00 0.14 0.14 71 1010.3
20260507174113 56 131 0.0 0.0 0.00 0.14 0.14 70 1010.3
20260507173610 57 168 0.9 1.7 0.00 0.14 0.14 69 1010.4
20260507173107 56 345 0.0 0.0 0.00 0.14 0.14 69 1010.4
20260507172602 57 238 0.9 0.9 0.00 0.14 0.14 67 1011.0
20260507172100 56 47 0.0 1.7 0.00 0.14 0.14 68 1010.6
20260507171555 56 238 0.0 1.7 0.00 0.14 0.14 71 1010.6
20260507171052 56 1 0.0 0.9 0.00 0.14 0.14 70 1010.5
20260507170549 57 266 0.0 0.0 0.00 0.14 0.14 68 1011.0
20260507170046 57 285 0.9 0.9 0.00 0.14 0.14 66 1010.7
20260507165542 56 6 0.0 0.9 0.00 0.14 0.14 68 1010.9
20260507165038 56 119 0.9 4.3 0.00 0.14 0.14 69 1011.1
20260507164534 57 228 0.9 0.9 0.00 0.14 0.14 69 1011.0
20260507164032 56 274 0.0 0.0 0.00 0.14 0.14 69 1011.0
20260507163529 56 270 0.0 0.0 0.00 0.14 0.14 74 1011.2
20260507163027 55 250 0.0 0.9 0.00 0.14 0.14 69 1011.7
20260507162521 56 185 1.7 4.3 0.00 0.14 0.14 69 1011.7
20260507162018 56 339 0.0 0.9 0.00 0.14 0.14 65 1011.8
20260507161515 56 310 0.0 0.9 0.05 0.14 0.14 69 1011.7
20260507161012 55 316 0.0 0.0 0.05 0.14 0.14 69 1011.6
20260507160507 55 239 0.0 2.6 0.00 0.13 0.13 65 1011.7
20260507160004 56 12 0.0 0.9 0.00 0.13 0.13 61 1011.4
20260507155459 56 1 0.0 0.9 0.00 0.13 0.13 60 1011.5
20260507154957 56 2 0.0 0.9 0.00 0.13 0.13 62 1011.7
20260507154453 56 98 0.0 1.7 0.00 0.13 0.13 63 1011.4
20260507153950 56 5 0.0 0.0 0.00 0.13 0.13 63 1011.6
20260507153447 56 17 0.0 0.9 0.00 0.13 0.13 63 1011.6
20260507152943 55 115 0.0 0.9 0.00 0.13 0.13 64 1011.8
20260507152439 56 47 0.9 0.9 0.00 0.13 0.13 64 1011.8
20260507151936 55 0 0.0 0.9 0.00 0.13 0.13 66 1011.8
20260507151432 55 8 0.0 0.0 0.00 0.13 0.13 67 1011.8
20260507150929 55 344 0.0 0.0 0.00 0.13 0.13 66 1011.7
20260507150426 55 357 0.0 0.9 0.00 0.13 0.13 68 1011.8
20260507145922 55 1 0.0 0.0 0.00 0.13 0.13 67 1011.9
20260507145418 55 359 0.0 0.0 0.00 0.13 0.13 67 1011.9
20260507144915 55 359 0.0 0.9 0.00 0.13 0.13 70 1011.9
20260507144412 55 358 0.0 0.0 0.00 0.13 0.13 69 1012.2
20260507143909 54 358 0.0 0.0 0.00 0.13 0.13 69 1012.2
20260507143407 54 358 0.0 0.0 0.00 0.13 0.13 70 1012.3
20260507142903 54 358 0.0 0.0 0.00 0.13 0.13 72 1012.2
20260507142359 54 342 0.0 0.0 0.00 0.13 0.13 72 1012.3
20260507141856 54 343 0.0 0.9 0.00 0.13 0.13 73 1012.2
20260507141352 54 332 0.0 0.0 0.00 0.13 0.13 74 1012.7
20260507140849 54 299 0.9 0.9 0.00 0.13 0.13 73 1012.6
20260507140346 54 358 2.6 2.6 0.00 0.13 0.13 72 1012.6
20260507135844 54 4 0.0 0.0 0.00 0.13 0.13 73 1012.7
20260507135340 54 353 0.0 0.0 0.00 0.13 0.13 73 1012.4
20260507134838 54 343 0.9 0.9 0.00 0.13 0.13 73 1012.4
20260507134333 54 354 0.0 0.9 0.00 0.13 0.13 73 1012.6
20260507133830 54 39 0.0 0.9 0.00 0.13 0.13 74 1012.7
20260507133325 54 75 0.9 0.9 0.00 0.13 0.13 75 1012.6
20260507132824 54 5 0.0 0.9 0.00 0.13 0.13 75 1012.4
20260507132320 54 353 0.0 0.0 0.00 0.13 0.13 76 1012.4
20260507131818 54 19 0.0 0.0 0.00 0.13 0.13 75 1012.6
20260507131314 54 48 0.0 0.9 0.00 0.13 0.13 78 1012.6
20260507130811 54 352 0.0 0.9 0.00 0.13 0.13 78 1012.2
20260507130308 54 0 0.0 0.0 0.00 0.13 0.13 79 1012.4
20260507125807 54 1 0.0 0.0 0.00 0.13 0.13 79 1012.6
20260507125306 54 350 0.0 0.9 0.00 0.13 0.13 81 1012.6
20260507124801 54 10 0.0 0.0 0.00 0.13 0.13 81 1012.6
20260507124257 54 8 0.0 0.0 0.00 0.13 0.13 82 1012.3
20260507123756 54 348 0.9 0.9 0.00 0.13 0.13 83 1012.6
20260507123253 54 44 0.0 1.7 0.00 0.13 0.13 83 1012.4
20260507122748 54 341 0.0 0.9 0.00 0.13 0.13 85 1012.1
20260507122244 54 300 0.0 0.0 0.00 0.13 0.13 86 1011.9
20260507121740 54 353 0.0 0.0 0.00 0.13 0.13 86 1012.2
20260507121236 54 353 0.0 0.0 0.00 0.13 0.13 86 1011.9
20260507120732 54 347 0.0 1.7 0.00 0.13 0.13 87 1011.9
20260507120230 54 339 0.0 0.9 0.00 0.13 0.13 88 1012.1
20260507115726 54 345 0.0 0.0 0.00 0.13 0.13 89 1011.9
20260507115222 54 302 0.0 0.0 0.00 0.13 0.13 90 1012.1
20260507114717 54 310 0.0 0.0 0.00 0.13 0.13 90 1011.8
20260507114215 54 304 0.0 0.9 0.00 0.13 0.13 91 1011.8
20260507113712 54 310 0.0 0.0 0.00 0.13 0.13 91 1011.4
20260507113209 54 340 0.0 0.0 0.00 0.13 0.13 92 1011.6
20260507112707 53 344 0.0 0.0 0.00 0.13 0.13 92 1011.9
20260507112203 53 343 0.0 0.0 0.00 0.13 0.13 93 1011.7
20260507111701 53 343 0.0 0.0 0.00 0.13 0.13 93 1011.5
20260507111158 53 335 0.0 0.0 0.00 0.13 0.13 94 1011.6
20260507110653 53 335 0.0 0.0 0.00 0.13 0.13 94 1011.5
20260507110150 53 335 0.0 0.0 0.00 0.13 0.13 94 1011.6
20260507105647 53 335 0.0 0.0 0.00 0.13 0.13 94 1011.6
20260507105143 53 335 0.0 0.0 0.00 0.13 0.13 94 1011.4
20260507104641 53 335 0.0 0.0 0.00 0.13 0.13 95 1011.5
20260507104137 53 335 0.0 0.0 0.00 0.13 0.13 95 1011.6
20260507103633 53 336 0.0 0.9 0.00 0.13 0.13 95 1011.6
20260507103130 53 332 0.0 0.0 0.00 0.13 0.13 95 1011.3
20260507102626 53 340 0.0 0.0 0.00 0.13 0.13 95 1011.4
20260507102123 53 340 0.0 0.0 0.00 0.13 0.13 95 1011.1
20260507101619 53 340 0.0 0.0 0.00 0.13 0.13 96 1011.3
20260507101115 53 340 0.0 0.0 0.00 0.13 0.13 96 1011.3
20260507100612 53 341 0.0 0.0 0.00 0.13 0.13 96 1011.2
20260507100110 53 340 0.0 0.0 0.00 0.13 0.13 96 1011.3
20260507095608 53 340 0.0 0.0 0.00 0.13 0.13 96 1011.2
20260507095104 53 341 0.0 0.0 0.00 0.13 0.13 96 1011.1
20260507094600 53 341 0.0 0.0 0.00 0.13 0.13 96 1011.0
20260507094058 53 340 0.0 0.0 0.00 0.13 0.13 97 1011.1
20260507093555 53 340 0.0 0.0 0.00 0.13 0.13 97 1011.0
20260507093054 53 340 0.0 0.0 0.00 0.13 0.13 97 1011.0
20260507092549 53 340 0.0 0.0 0.00 0.13 0.13 97 1010.9
20260507092046 52 340 0.0 0.0 0.00 0.13 0.13 98 1011.0
20260507091543 52 340 0.0 0.0 0.00 0.13 0.13 98 1011.0
20260507091039 52 340 0.0 0.0 0.00 0.13 0.13 98 1010.8
20260507090535 52 340 0.0 0.0 0.00 0.13 0.13 98 1011.1
20260507090032 52 340 0.0 0.0 0.00 0.13 0.13 98 1010.8
20260507085529 52 340 0.0 0.0 0.00 0.13 0.13 98 1010.7
20260507085026 52 340 0.0 0.0 0.00 0.13 0.13 98 1010.3
20260507084522 52 340 0.0 0.0 0.00 0.13 0.13 98 1010.7
20260507084020 52 339 0.0 0.0 0.00 0.13 0.13 98 1010.7
20260507083516 52 339 0.0 0.0 0.00 0.13 0.13 98 1010.7
20260507083013 52 339 0.0 0.0 0.00 0.13 0.13 99 1010.7
20260507082509 52 340 0.0 0.9 0.00 0.13 0.13 99 1010.9
20260507082005 52 325 0.0 0.0 0.00 0.13 0.13 99 1011.0
20260507081501 52 340 0.0 0.9 0.00 0.13 0.13 99 1010.8
20260507080959 52 348 0.0 0.0 0.00 0.13 0.13 99 1010.9
20260507080454 52 347 0.0 0.0 0.00 0.13 0.13 99 1010.7
20260507075950 52 345 0.0 0.0 0.00 0.13 0.13 99 1010.6
20260507075447 52 330 0.0 0.0 0.00 0.13 0.13 99 1010.7
20260507074943 52 352 0.0 1.7 0.00 0.13 0.13 99 1010.5
20260507074440 52 354 0.0 0.0 0.00 0.13 0.13 99 1010.3
20260507073938 52 354 0.0 0.0 0.00 0.13 0.13 99 1010.2
20260507073434 52 7 0.0 0.9 0.00 0.13 0.13 99 1010.0
20260507072931 52 9 0.0 0.0 0.00 0.13 0.13 99 1010.1
20260507072428 53 0 0.0 0.0 0.00 0.13 0.13 99 1010.1
20260507071926 53 359 0.0 0.0 0.00 0.13 0.13 99 1010.3
20260507071423 53 1 0.0 0.0 0.00 0.13 0.13 99 1010.0
20260507070919 53 359 0.0 0.0 0.00 0.13 0.13 99 1009.9
20260507070417 53 357 0.0 0.0 0.00 0.13 0.13 99 1010.0
20260507065913 53 353 0.0 0.0 0.00 0.13 0.13 99 1010.0
20260507065410 53 354 0.0 0.0 0.00 0.13 0.13 99 1010.1
20260507064907 53 348 0.0 0.0 0.00 0.13 0.13 99 1010.0
20260507064405 53 7 0.0 0.9 0.00 0.13 0.13 99 1010.1
20260507063903 53 348 0.0 0.9 0.00 0.13 0.13 99 1010.2
20260507063400 54 63 0.9 0.9 0.07 0.13 0.13 99 1010.3
20260507062857 54 357 0.0 0.0 0.07 0.13 0.13 99 1010.1
20260507062353 55 349 0.0 0.9 0.00 0.12 0.12 99 1010.1
20260507061851 55 343 0.9 5.2 0.00 0.12 0.12 99 1010.6
20260507061349 55 315 0.0 0.0 0.00 0.12 0.12 99 1010.3
20260507060847 56 344 0.0 0.9 0.00 0.12 0.12 99 1010.1
20260507060343 56 349 0.0 0.9 0.00 0.12 0.12 99 1010.1
20260507055841 56 316 0.0 0.9 0.00 0.12 0.12 99 1010.6
20260507055335 56 58 0.0 0.9 0.00 0.12 0.12 99 1009.8
20260507054833 56 346 0.9 1.7 0.00 0.12 0.12 99 1010.5
20260507054328 56 9 0.0 0.0 0.00 0.12 0.12 99 1010.0
20260507053826 56 337 0.0 0.9 0.00 0.12 0.12 99 1010.1
20260507053324 56 325 0.0 0.0 0.00 0.12 0.12 99 1009.8
20260507052822 56 324 0.0 0.9 0.00 0.12 0.12 99 1009.7
20260507052319 57 348 0.0 0.0 0.00 0.12 0.12 99 1009.8
20260507051816 57 2 0.0 0.9 0.00 0.12 0.12 99 1009.4
20260507051314 57 0 0.0 0.0 0.05 0.12 0.12 99 1009.5
20260507050810 57 5 0.0 0.0 0.05 0.12 0.12 99 1009.4
20260507050306 57 25 0.0 0.0 0.07 0.11 0.11 99 1009.7
20260507045804 57 340 0.0 0.0 0.07 0.11 0.11 99 1009.7
20260507045300 57 353 0.0 4.3 0.12 0.10 0.10 99 1010.0
20260507044757 57 7 0.0 1.7 0.31 0.10 0.10 99 1009.3
20260507044253 57 105 0.0 0.0 0.31 0.08 0.08 99 1008.8
20260507043750 58 54 0.0 0.0 0.24 0.05 0.05 99 1009.5
20260507043247 59 353 0.0 0.0 0.12 0.02 0.02 99 1009.9
20260507042743 59 335 0.0 0.0 0.05 0.01 0.01 99 1010.2
20260507042238 59 335 0.0 0.0 0.00 0.00 0.00 99 1010.1
20260507041736 59 333 0.0 0.0 0.00 0.00 0.00 99 1009.8
20260507041232 60 326 0.0 0.0 0.00 0.00 0.00 99 1010.0
20260507040730 60 282 0.0 0.0 0.07 0.00 0.00 99 1009.9
20260507040225 60 319 0.0 0.0 0.42 0.00 0.00 98 1010.0
20260507035721 60 341 0.0 0.0 0.59 0.34 0.34 97 1010.0
20260507035217 61 5 0.0 0.0 0.24 0.26 0.26 97 1010.3
20260507034715 61 0 0.0 0.0 0.19 0.24 0.24 96 1010.0
20260507034212 62 344 0.0 0.9 0.38 0.22 0.22 95 1010.2
20260507033710 63 127 0.0 0.9 0.31 0.21 0.21 93 1009.7
20260507033207 63 331 0.0 1.7 0.00 0.16 0.16 91 1010.2
20260507032704 63 29 0.0 0.9 0.00 0.16 0.16 91 1009.1
20260507032200 63 29 0.0 0.0 0.00 0.16 0.16 91 1009.1
20260507031657 63 27 0.0 0.0 0.00 0.16 0.16 90 1009.0
20260507031154 63 28 0.0 0.0 0.00 0.16 0.16 91 1009.2
20260507030650 64 23 0.0 0.9 0.00 0.16 0.16 90 1009.1
20260507030148 64 42 0.0 0.9 0.00 0.16 0.16 89 1009.0
20260507025645 64 32 0.0 0.9 0.00 0.16 0.16 89 1008.9
20260507025142 64 29 0.0 0.0 0.00 0.16 0.16 89 1009.5
20260507024640 65 294 0.0 0.9 0.00 0.16 0.16 90 1009.3
20260507024137 65 30 0.0 0.0 0.00 0.16 0.16 91 1009.2
20260507023632 65 31 0.0 0.0 0.00 0.16 0.16 92 1008.9
20260507023130 65 18 0.0 0.0 0.00 0.16 0.16 93 1009.0
20260507022627 65 19 0.0 0.9 0.00 0.16 0.16 93 1009.3
20260507022122 65 297 0.0 0.9 0.00 0.16 0.16 94 1009.2
20260507021619 65 350 0.0 2.6 0.00 0.16 0.16 94 1009.1
20260507021115 66 357 0.9 1.7 0.00 0.16 0.16 95 1008.9
20260507020613 66 337 0.0 0.9 0.00 0.16 0.16 95 1008.7
20260507020109 66 334 1.7 5.2 0.00 0.16 0.16 94 1008.9
20260507015608 66 349 0.0 1.7 0.00 0.16 0.16 94 1008.3
20260507015105 66 315 0.0 0.0 0.00 0.16 0.16 94 1008.3
20260507014601 66 335 0.9 0.9 0.00 0.16 0.16 93 1008.1
20260507014057 66 343 1.7 1.7 0.00 0.16 0.16 92 1008.2
20260507013554 66 358 0.0 2.6 0.00 0.16 0.16 92 1008.7
20260507013051 66 355 0.9 1.7 0.00 0.16 0.16 91 1008.9
20260507012549 66 336 0.9 2.6 0.00 0.16 0.16 91 1008.8
20260507012044 66 311 0.0 0.0 0.00 0.16 0.16 91 1008.7
20260507011542 66 311 0.0 0.0 0.00 0.16 0.16 91 1008.8
20260507011038 66 311 0.0 0.0 0.00 0.16 0.16 91 1008.9
20260507010532 66 305 0.0 0.0 0.00 0.16 0.16 91 1009.1
20260507010029 66 239 0.9 0.9 0.00 0.16 0.16 91 1009.1
20260507005527 66 292 0.0 0.0 0.00 0.16 0.16 90 1008.7
20260507005023 66 242 0.0 0.0 0.00 0.16 0.16 89 1008.6
20260507004520 66 225 0.0 0.0 0.00 0.16 0.16 89 1008.7
20260507004018 67 232 0.9 1.7 0.00 0.16 0.16 89 1008.6
20260507003513 66 314 0.0 0.0 0.00 0.16 0.16 88 1008.6
20260507003008 67 269 0.0 0.0 0.00 0.16 0.16 88 1008.6
20260507002505 67 316 0.0 0.0 0.00 0.16 0.16 87 1008.3
20260507002001 67 313 0.0 0.9 0.00 0.16 0.16 87 1008.2
20260507001457 67 312 0.0 0.0 0.00 0.16 0.16 85 1008.3
20260507000955 68 312 0.0 0.0 0.00 0.16 0.16 85 1007.7
20260507000451 68 312 0.0 0.9 0.00 0.16 0.16 84 1008.1
20260506235946 68 286 0.0 0.0 0.00 0.16 0.16 84 1008.2
20260506235444 69 213 0.9 1.7 0.00 0.16 0.16 83 1008.1
20260506234940 69 214 1.7 1.7 0.00 0.16 0.16 83 1008.2
20260506234437 69 190 0.9 1.7 0.00 0.16 0.16 82 1008.3
20260506233935 69 229 0.9 1.7 0.00 0.16 0.16 81 1008.0
20260506233431 70 248 0.9 1.7 0.00 0.16 0.16 81 1007.8
20260506232928 70 278 2.6 7.0 0.00 0.16 0.16 80 1007.9
20260506232424 70 208 2.6 4.3 0.00 0.16 0.16 80 1007.7
20260506231920 70 202 4.3 6.1 0.00 0.16 0.16 79 1007.7
20260506231418 70 213 2.6 4.3 0.00 0.16 0.16 79 1007.5
20260506230915 70 212 2.6 5.2 0.00 0.16 0.16 79 1007.5
20260506230411 70 197 3.5 4.3 0.00 0.16 0.16 79 1007.5
20260506225908 70 202 6.1 7.8 0.00 0.16 0.16 78 1007.5
20260506225405 71 200 3.5 8.7 0.00 0.16 0.16 78 1007.4
20260506224902 71 167 2.6 5.2 0.00 0.16 0.16 78 1007.7
20260506224359 71 225 0.9 2.6 0.00 0.16 0.16 78 1007.7
20260506223855 71 181 3.5 7.0 0.00 0.16 0.16 77 1007.7
20260506223351 71 202 4.3 6.1 0.00 0.16 0.16 77 1007.2
20260506222848 71 177 3.5 12.2 0.00 0.16 0.16 77 1007.3
20260506222344 71 239 2.6 6.1 0.00 0.16 0.16 77 1007.7
20260506221842 71 175 4.3 6.1 0.00 0.16 0.16 76 1007.5
20260506221339 71 85 0.0 4.3 0.00 0.16 0.16 77 1007.6
20260506220837 71 318 3.5 6.1 0.00 0.16 0.16 76 1007.6
20260506220332 71 184 3.5 7.8 0.00 0.16 0.16 76 1007.6
20260506215829 71 208 3.5 6.1 0.00 0.16 0.16 76 1007.5
20260506215324 72 198 6.1 8.7 0.00 0.16 0.16 75 1007.6
20260506214820 71 211 2.6 7.8 0.00 0.16 0.16 76 1007.4
20260506214317 71 163 2.6 7.8 0.00 0.16 0.16 77 1007.3
20260506213816 71 219 3.5 7.8 0.00 0.16 0.16 77 1007.6
20260506213313 71 257 0.9 5.2 0.00 0.16 0.16 78 1007.5
20260506212810 71 196 4.3 11.3 0.00 0.16 0.16 77 1007.6
20260506212307 70 207 2.6 2.6 0.00 0.16 0.16 78 1007.5
20260506211801 70 186 4.3 7.0 0.00 0.16 0.16 78 1007.7
20260506211257 71 134 2.6 5.2 0.00 0.16 0.16 78 1007.5
20260506210754 71 328 0.9 1.7 0.00 0.16 0.16 79 1007.6
20260506210251 70 237 3.5 7.8 0.00 0.16 0.16 78 1007.3
20260506205748 70 171 2.6 7.0 0.00 0.16 0.16 78 1007.2
20260506205244 70 230 0.9 5.2 0.00 0.16 0.16 79 1007.3
20260506204741 70 213 1.7 7.0 0.00 0.16 0.16 79 1007.2
20260506204238 70 111 1.7 7.8 0.00 0.16 0.16 79 1007.2
20260506203736 70 210 3.5 6.1 0.00 0.16 0.16 79 1007.2
20260506203233 70 201 3.5 7.0 0.00 0.16 0.16 79 1007.0
20260506202731 70 239 3.5 7.8 0.00 0.16 0.16 80 1007.0
20260506202227 70 246 0.9 8.7 0.00 0.16 0.16 80 1007.1
20260506201724 69 198 5.2 8.7 0.00 0.16 0.16 80 1007.0
20260506201220 69 196 4.3 9.6 0.00 0.16 0.16 80 1007.1
20260506200717 69 203 1.7 4.3 0.00 0.16 0.16 81 1007.0
20260506200208 69 189 4.3 5.2 0.00 0.16 0.16 80 1007.6
20260506195705 69 202 4.3 9.6 0.00 0.16 0.16 80 1007.4
20260506195201 69 196 2.6 8.7 0.00 0.16 0.16 81 1007.6
20260506194659 69 187 6.1 8.7 0.00 0.16 0.16 80 1007.5
20260506194155 69 154 3.5 7.0 0.00 0.16 0.16 81 1007.5
20260506193653 69 178 6.1 8.7 0.00 0.16 0.16 81 1007.5
20260506193149 69 179 4.3 5.2 0.00 0.16 0.16 81 1007.4
20260506192646 68 280 2.6 4.3 0.00 0.16 0.16 81 1007.7
20260506192142 68 191 5.2 6.1 0.00 0.16 0.16 83 1007.4
20260506191639 68 205 4.3 6.1 0.00 0.16 0.16 83 1007.6
20260506191135 67 208 3.5 6.1 0.00 0.16 0.16 83 1008.1
20260506190633 67 196 0.9 5.2 0.00 0.16 0.16 84 1008.2
20260506190129 67 198 6.1 8.7 0.00 0.16 0.16 83 1008.3
20260506185627 67 165 5.2 8.7 0.00 0.16 0.16 83 1008.0
20260506185123 67 217 4.3 8.7 0.00 0.16 0.16 84 1008.3
20260506184620 67 168 5.2 11.3 0.00 0.16 0.16 83 1007.9
20260506184117 67 213 2.6 7.8 0.00 0.16 0.16 84 1008.2
20260506183614 67 188 1.7 7.0 0.00 0.16 0.16 84 1008.6
20260506183110 67 165 3.5 6.1 0.00 0.16 0.16 84 1008.3
20260506182608 67 161 4.3 8.7 0.00 0.16 0.16 84 1008.4
20260506182105 67 168 2.6 5.2 0.00 0.16 0.16 85 1008.3
20260506181603 67 216 3.5 6.1 0.00 0.16 0.16 85 1008.3
20260506181059 66 198 10.4 14.8 0.00 0.16 0.16 85 1008.4
20260506180556 67 208 3.5 8.7 0.00 0.16 0.16 85 1008.5
20260506180052 66 199 3.5 7.8 0.00 0.16 0.16 85 1008.6
20260506175549 66 226 1.7 5.2 0.00 0.16 0.16 86 1008.4
20260506175045 66 165 6.1 7.8 0.00 0.16 0.16 86 1008.5